| time (UTC) | temp F | wind direction | speed MPH | gust MPH | rain 1hr in | rain 24hr in | rain mn in | humidity % | barometer mb |
| 20260509181516 | 48 | 0.0 | 0.0 | 0.04 | 0.16 | 0.16 | 92 | 1010.8 | |
| 20260509181016 | 48 | 0.0 | 0.0 | 0.03 | 0.15 | 0.15 | 92 | 1010.9 | |
| 20260509180537 | 48 | 0.0 | 0.0 | 0.03 | 0.15 | 0.15 | 92 | 1010.9 | |
| 20260509180017 | 47 | 0.0 | 0.0 | 0.04 | 0.15 | 0.15 | 92 | 1011.0 | |
| 20260509175517 | 47 | 0.0 | 0.0 | 0.04 | 0.15 | 0.15 | 92 | 1011.0 | |
| 20260509175017 | 47 | 0.0 | 0.0 | 0.04 | 0.15 | 0.15 | 92 | 1011.1 | |
| 20260509174516 | 47 | 0.0 | 0.0 | 0.03 | 0.14 | 0.14 | 92 | 1011.1 | |
| 20260509174017 | 47 | 0.0 | 0.0 | 0.04 | 0.14 | 0.14 | 92 | 1011.1 | |
| 20260509173517 | 47 | 0.0 | 0.0 | 0.04 | 0.14 | 0.14 | 92 | 1011.1 | |
| 20260509173056 | 47 | 0.0 | 0.0 | 0.04 | 0.13 | 0.13 | 92 | 1011.1 | |
| 20260509172537 | 47 | 0.0 | 0.0 | 0.04 | 0.13 | 0.13 | 92 | 1011.1 | |
| 20260509172016 | 47 | 0.0 | 0.0 | 0.04 | 0.13 | 0.13 | 92 | 1011.1 | |
| 20260509171516 | 47 | 0.0 | 0.0 | 0.03 | 0.12 | 0.12 | 91 | 1011.4 | |
| 20260509171016 | 47 | 0.0 | 0.0 | 0.04 | 0.12 | 0.12 | 91 | 1011.6 | |
| 20260509170516 | 47 | 0.0 | 0.0 | 0.04 | 0.12 | 0.12 | 91 | 1011.5 | |
| 20260509170016 | 47 | 0.0 | 0.0 | 0.03 | 0.11 | 0.11 | 91 | 1011.5 | |
| 20260509165536 | 47 | 0.0 | 0.0 | 0.03 | 0.11 | 0.11 | 91 | 1011.6 | |
| 20260509165016 | 47 | 0.0 | 0.0 | 0.03 | 0.11 | 0.11 | 92 | 1011.5 | |
| 20260509164516 | 46 | 0.0 | 0.0 | 0.04 | 0.11 | 0.11 | 92 | 1011.5 | |
| 20260509164016 | 46 | 0.0 | 0.0 | 0.03 | 0.10 | 0.10 | 91 | 1011.6 | |
| 20260509163516 | 46 | 0.0 | 0.0 | 0.03 | 0.10 | 0.10 | 91 | 1011.8 | |
| 20260509163016 | 46 | 0.0 | 0.0 | 0.02 | 0.09 | 0.09 | 91 | 1011.7 | |
| 20260509162516 | 46 | 0.0 | 0.0 | 0.02 | 0.09 | 0.09 | 91 | 1011.6 | |
| 20260509162016 | 46 | 0.0 | 0.0 | 0.02 | 0.09 | 0.09 | 91 | 1011.5 | |
| 20260509161516 | 46 | 0.0 | 0.0 | 0.03 | 0.09 | 0.09 | 91 | 1011.4 | |
| 20260509161016 | 46 | 0.0 | 0.0 | 0.02 | 0.08 | 0.08 | 91 | 1011.2 | |
| 20260509160536 | 47 | 0.0 | 0.0 | 0.02 | 0.08 | 0.08 | 92 | 1011.3 | |
| 20260509160016 | 47 | 0.0 | 0.0 | 0.03 | 0.08 | 0.08 | 92 | 1011.4 | |
| 20260509155536 | 46 | 0.0 | 0.0 | 0.03 | 0.08 | 0.08 | 92 | 1011.4 | |
| 20260509155016 | 46 | 0.0 | 0.0 | 0.03 | 0.08 | 0.08 | 92 | 1011.5 | |
| 20260509154516 | 46 | 0.0 | 0.0 | 0.02 | 0.07 | 0.07 | 91 | 1011.6 | |
| 20260509154016 | 46 | 0.0 | 0.0 | 0.02 | 0.07 | 0.07 | 91 | 1011.8 | |
| 20260509153516 | 46 | 0.0 | 0.0 | 0.02 | 0.07 | 0.07 | 91 | 1011.9 | |
| 20260509153016 | 46 | 0.0 | 0.0 | 0.02 | 0.07 | 0.07 | 91 | 1012.0 | |
| 20260509152536 | 46 | 0.0 | 0.0 | 0.03 | 0.07 | 0.07 | 91 | 1012.0 | |
| 20260509152016 | 46 | 0.0 | 0.0 | 0.03 | 0.07 | 0.07 | 91 | 1012.0 | |
| 20260509151516 | 46 | 0.0 | 0.0 | 0.02 | 0.06 | 0.06 | 91 | 1012.1 | |
| 20260509151036 | 46 | 0.0 | 0.0 | 0.02 | 0.06 | 0.06 | 91 | 1012.1 | |
| 20260509150516 | 46 | 0.0 | 0.0 | 0.03 | 0.06 | 0.06 | 92 | 1012.1 | |
| 20260509150016 | 45 | 0.0 | 0.0 | 0.02 | 0.05 | 0.05 | 91 | 1012.2 | |
| 20260509145516 | 45 | 0.0 | 0.0 | 0.02 | 0.05 | 0.05 | 91 | 1012.3 | |
| 20260509145036 | 45 | 0.0 | 0.0 | 0.02 | 0.05 | 0.05 | 91 | 1012.3 | |
| 20260509144516 | 45 | 0.0 | 0.0 | 0.02 | 0.05 | 0.05 | 91 | 1012.4 | |
| 20260509144016 | 45 | 0.0 | 0.0 | 0.03 | 0.05 | 0.05 | 92 | 1012.3 | |
| 20260509143536 | 45 | 0.0 | 0.0 | 0.03 | 0.05 | 0.05 | 92 | 1012.3 | |
| 20260509143016 | 45 | 0.0 | 0.0 | 0.03 | 0.05 | 0.05 | 91 | 1012.4 | |
| 20260509142516 | 45 | 0.0 | 0.0 | 0.03 | 0.04 | 0.04 | 91 | 1012.4 | |
| 20260509142016 | 45 | 0.0 | 0.0 | 0.03 | 0.04 | 0.04 | 92 | 1012.4 | |
| 20260509141516 | 44 | 0.0 | 0.0 | 0.03 | 0.04 | 0.04 | 92 | 1012.5 | |
| 20260509141156 | 44 | 0.0 | 0.0 | 0.03 | 0.04 | 0.04 | 91 | 1012.5 | |
| 20260509140516 | 44 | 0.0 | 0.0 | 0.02 | 0.03 | 0.03 | 91 | 1012.5 | |
| 20260509140036 | 44 | 0.0 | 0.0 | 0.02 | 0.03 | 0.03 | 91 | 1012.5 | |
| 20260509135516 | 44 | 0.0 | 0.0 | 0.02 | 0.03 | 0.03 | 91 | 1012.4 | |
| 20260509135016 | 44 | 0.0 | 0.0 | 0.02 | 0.03 | 0.03 | 91 | 1012.4 | |
| 20260509134516 | 43 | 0.0 | 0.0 | 0.02 | 0.03 | 0.03 | 91 | 1012.3 | |
| 20260509134016 | 43 | 0.0 | 0.0 | 0.01 | 0.02 | 0.02 | 91 | 1012.2 | |
| 20260509133516 | 43 | 0.0 | 0.0 | 0.01 | 0.02 | 0.02 | 91 | 1012.1 | |
| 20260509133016 | 43 | 0.0 | 0.0 | 0.02 | 0.02 | 0.02 | 91 | 1012.0 | |
| 20260509132516 | 43 | 0.0 | 0.0 | 0.01 | 0.01 | 0.01 | 91 | 1011.9 | |
| 20260509132016 | 42 | 0.0 | 0.0 | 0.01 | 0.01 | 0.01 | 90 | 1012.0 | |
| 20260509131516 | 42 | 0.0 | 0.0 | 0.01 | 0.01 | 0.01 | 90 | 1012.0 | |
| 20260509131016 | 42 | 0.0 | 0.0 | 0.01 | 0.01 | 0.01 | 90 | 1012.1 | |
| 20260509130536 | 42 | 0.0 | 0.0 | 0.01 | 0.01 | 0.01 | 90 | 1012.2 | |
| 20260509130016 | 42 | 0.0 | 0.0 | 0.01 | 0.01 | 0.01 | 90 | 1012.1 | |
| 20260509125616 | 42 | 0.0 | 0.0 | 0.01 | 0.01 | 0.01 | 90 | 1012.2 | |
| 20260509125016 | 42 | 0.0 | 0.0 | 0.01 | 0.01 | 0.01 | 89 | 1012.2 | |
| 20260509124516 | 42 | 0.0 | 0.0 | 0.01 | 0.01 | 0.01 | 89 | 1012.2 | |
| 20260509124016 | 42 | 0.0 | 0.0 | 0.01 | 0.01 | 0.01 | 89 | 1012.3 | |
| 20260509123516 | 42 | 0.0 | 0.0 | 0.01 | 0.01 | 0.01 | 88 | 1012.2 | |
| 20260509123016 | 42 | 0.0 | 0.0 | 0.00 | 0.00 | 0.00 | 88 | 1012.2 | |
| 20260509122516 | 41 | 0.0 | 0.0 | 0.00 | 0.00 | 0.00 | 88 | 1012.3 | |
| 20260509122016 | 41 | 0.0 | 0.0 | 0.00 | 0.00 | 0.00 | 88 | 1012.4 | |
| 20260509121516 | 41 | 0.0 | 0.0 | 0.00 | 0.00 | 0.00 | 88 | 1012.4 | |
| 20260509121016 | 41 | 0.0 | 0.0 | 0.00 | 0.00 | 0.00 | 88 | 1012.5 | |
| 20260509120516 | 41 | 0.0 | 0.0 | 0.00 | 0.00 | 0.00 | 88 | 1012.4 | |
| 20260509120016 | 40 | 0.0 | 0.0 | 0.00 | 0.00 | 0.00 | 88 | 1012.4 | |
| 20260509115516 | 40 | 0.0 | 0.0 | 0.00 | 0.00 | 0.00 | 89 | 1012.5 | |
| 20260509115016 | 40 | 0.0 | 0.0 | 0.00 | 0.00 | 0.00 | 89 | 1012.5 | |
| 20260509114516 | 40 | 0.0 | 0.0 | 0.00 | 0.00 | 0.00 | 89 | 1012.5 | |
| 20260509114016 | 39 | 0.0 | 0.0 | 0.00 | 0.00 | 0.00 | 89 | 1012.5 | |
| 20260509113516 | 39 | 0.0 | 0.0 | 0.00 | 0.00 | 0.00 | 90 | 1012.6 | |
| 20260509113016 | 39 | 0.0 | 0.0 | 0.00 | 0.00 | 0.00 | 91 | 1012.4 | |
| 20260509112516 | 39 | 0.0 | 0.0 | 0.00 | 0.00 | 0.00 | 91 | 1012.3 | |
| 20260509112016 | 38 | 0.0 | 0.0 | 0.00 | 0.00 | 0.00 | 91 | 1012.5 | |
| 20260509111516 | 38 | 0.0 | 0.0 | 0.00 | 0.00 | 0.00 | 91 | 1012.5 | |
| 20260509111015 | 38 | 0.0 | 0.0 | 0.00 | 0.00 | 0.00 | 91 | 1012.6 | |
| 20260509110516 | 37 | 0.0 | 0.0 | 0.00 | 0.00 | 0.00 | 91 | 1012.5 | |
| 20260509110016 | 37 | 0.0 | 0.0 | 0.00 | 0.00 | 0.00 | 91 | 1012.4 | |
| 20260509105515 | 37 | 0.0 | 0.0 | 0.00 | 0.00 | 0.00 | 91 | 1012.4 | |
| 20260509105016 | 36 | 0.0 | 0.0 | 0.00 | 0.00 | 0.00 | 91 | 1012.3 | |
| 20260509104516 | 36 | 0.0 | 0.0 | 0.00 | 0.00 | 0.00 | 91 | 1012.3 | |
| 20260509104015 | 36 | 0.0 | 0.0 | 0.00 | 0.00 | 0.00 | 91 | 1012.4 | |
| 20260509103536 | 36 | 0.0 | 0.0 | 0.00 | 0.00 | 0.00 | 92 | 1012.3 | |
| 20260509103016 | 36 | 0.0 | 0.0 | 0.00 | 0.00 | 0.00 | 92 | 1012.2 | |
| 20260509102556 | 35 | 0.0 | 0.0 | 0.00 | 0.00 | 0.00 | 92 | 1012.2 | |
| 20260509102016 | 35 | 0.0 | 0.0 | 0.00 | 0.00 | 0.00 | 92 | 1012.3 | |
| 20260509101515 | 35 | 0.0 | 0.0 | 0.00 | 0.00 | 0.00 | 91 | 1012.3 | |
| 20260509101016 | 34 | 0.0 | 0.0 | 0.00 | 0.00 | 0.00 | 91 | 1012.1 | |
| 20260509100515 | 34 | 0.0 | 0.0 | 0.00 | 0.00 | 0.00 | 91 | 1012.1 | |
| 20260509100015 | 34 | 0.0 | 0.0 | 0.00 | 0.00 | 0.00 | 91 | 1012.0 | |
| 20260509095515 | 34 | 0.0 | 0.0 | 0.00 | 0.00 | 0.00 | 91 | 1012.0 | |
| 20260509095016 | 34 | 0.0 | 0.0 | 0.00 | 0.00 | 0.00 | 91 | 1011.9 | |
| 20260509094515 | 34 | 0.0 | 0.0 | 0.00 | 0.00 | 0.00 | 91 | 1011.9 | |
| 20260509094015 | 34 | 0.0 | 0.0 | 0.00 | 0.00 | 0.00 | 91 | 1011.8 | |
| 20260509093535 | 34 | 0.0 | 0.0 | 0.00 | 0.00 | 0.00 | 91 | 1011.8 | |
| 20260509093015 | 34 | 0.0 | 0.0 | 0.00 | 0.00 | 0.00 | 91 | 1011.7 | |
| 20260509092515 | 34 | 0.0 | 0.0 | 0.00 | 0.00 | 0.00 | 91 | 1011.5 | |
| 20260509092015 | 34 | 0.0 | 0.0 | 0.00 | 0.00 | 0.00 | 91 | 1011.5 | |
| 20260509091515 | 34 | 0.0 | 0.0 | 0.00 | 0.00 | 0.00 | 90 | 1011.5 | |
| 20260509091015 | 34 | 0.0 | 0.0 | 0.00 | 0.00 | 0.00 | 90 | 1011.5 | |
| 20260509090515 | 33 | 0.0 | 0.0 | 0.00 | 0.00 | 0.00 | 90 | 1011.5 | |
| 20260509090015 | 34 | 0.0 | 0.0 | 0.00 | 0.00 | 0.00 | 90 | 1011.6 | |
| 20260509085515 | 34 | 0.0 | 0.0 | 0.00 | 0.00 | 0.00 | 90 | 1011.5 | |
| 20260509085055 | 34 | 0.0 | 0.0 | 0.00 | 0.00 | 0.00 | 90 | 1011.5 | |
| 20260509084515 | 34 | 0.0 | 0.0 | 0.00 | 0.00 | 0.00 | 89 | 1011.5 | |
| 20260509084015 | 34 | 0.0 | 0.0 | 0.00 | 0.00 | 0.00 | 90 | 1011.5 | |
| 20260509083515 | 34 | 0.0 | 0.0 | 0.00 | 0.00 | 0.00 | 89 | 1011.4 | |
| 20260509083035 | 34 | 0.0 | 0.0 | 0.00 | 0.00 | 0.00 | 89 | 1011.3 | |
| 20260509082515 | 34 | 0.0 | 0.0 | 0.00 | 0.00 | 0.00 | 89 | 1011.3 | |
| 20260509082015 | 34 | 0.0 | 0.0 | 0.00 | 0.00 | 0.00 | 89 | 1011.3 | |
| 20260509081515 | 34 | 0.0 | 0.0 | 0.00 | 0.00 | 0.00 | 89 | 1011.3 | |
| 20260509081015 | 34 | 0.0 | 0.0 | 0.00 | 0.00 | 0.00 | 89 | 1011.4 | |
| 20260509080515 | 35 | 0.0 | 0.0 | 0.00 | 0.00 | 0.00 | 89 | 1011.5 | |
| 20260509080015 | 35 | 0.0 | 0.0 | 0.00 | 0.00 | 0.00 | 89 | 1011.4 | |
| 20260509075515 | 35 | 0.0 | 0.0 | 0.00 | 0.00 | 0.00 | 89 | 1011.5 | |
| 20260509075015 | 35 | 0.0 | 0.0 | 0.00 | 0.00 | 0.00 | 89 | 1011.5 | |
| 20260509074515 | 35 | 0.0 | 0.0 | 0.00 | 0.00 | 0.00 | 88 | 1011.4 | |
| 20260509074015 | 35 | 0.0 | 0.0 | 0.00 | 0.00 | 0.00 | 88 | 1011.3 | |
| 20260509073535 | 35 | 0.0 | 0.0 | 0.00 | 0.00 | 0.00 | 88 | 1011.2 | |
| 20260509073015 | 36 | 0.0 | 0.0 | 0.00 | 0.00 | 0.00 | 88 | 1011.2 | |
| 20260509072515 | 36 | 0.0 | 0.0 | 0.00 | 0.00 | 0.00 | 88 | 1011.3 | |
| 20260509072015 | 36 | 0.0 | 0.0 | 0.00 | 0.00 | 0.00 | 87 | 1011.3 | |
| 20260509071515 | 36 | 0.0 | 0.0 | 0.00 | 0.00 | 0.00 | 87 | 1011.2 | |
| 20260509071035 | 36 | 0.0 | 0.0 | 0.00 | 0.00 | 0.00 | 87 | 1011.3 | |
| 20260509070515 | 36 | 0.0 | 0.0 | 0.00 | 0.00 | 0.00 | 87 | 1011.3 | |
| 20260509070015 | 36 | 0.0 | 0.0 | 0.00 | 0.00 | 0.00 | 87 | 1011.3 | |
| 20260509065515 | 36 | 0.0 | 0.0 | 0.00 | 0.00 | 0.00 | 87 | 1011.3 | |
| 20260509065015 | 37 | 0.0 | 0.0 | 0.00 | 0.00 | 0.00 | 87 | 1011.3 | |
| 20260509064515 | 37 | 0.0 | 0.0 | 0.00 | 0.00 | 0.00 | 86 | 1011.2 | |
| 20260509064015 | 37 | 0.0 | 0.0 | 0.00 | 0.00 | 0.00 | 86 | 1011.1 | |
| 20260509063515 | 37 | 0.0 | 0.0 | 0.00 | 0.00 | 0.00 | 86 | 1011.1 | |
| 20260509063015 | 37 | 0.0 | 0.0 | 0.00 | 0.00 | 0.00 | 85 | 1011.0 | |
| 20260509062515 | 37 | 0.0 | 0.0 | 0.00 | 0.00 | 0.00 | 86 | 1011.0 | |
| 20260509062015 | 38 | 0.0 | 0.0 | 0.00 | 0.00 | 0.00 | 86 | 1011.1 | |
| 20260509061515 | 38 | 0.0 | 0.0 | 0.00 | 0.00 | 0.00 | 86 | 1011.2 | |
| 20260509061015 | 38 | 0.0 | 0.0 | 0.00 | 0.00 | 0.00 | 86 | 1011.2 | |
| 20260509060515 | 38 | 0.0 | 0.0 | 0.00 | 0.00 | 0.00 | 85 | 1011.2 | |
| 20260509060015 | 38 | 0.0 | 0.0 | 0.00 | 0.00 | 0.00 | 85 | 1011.2 | |
| 20260509055515 | 38 | 0.0 | 0.0 | 0.00 | 0.00 | 0.00 | 86 | 1011.3 | |
| 20260509055035 | 38 | 0.0 | 0.0 | 0.00 | 0.00 | 0.00 | 85 | 1011.3 | |
| 20260509054515 | 38 | 0.0 | 0.0 | 0.00 | 0.00 | 0.00 | 85 | 1011.3 | |
| 20260509054015 | 38 | 0.0 | 0.0 | 0.00 | 0.00 | 0.00 | 85 | 1011.3 | |
| 20260509053515 | 38 | 0.0 | 0.0 | 0.00 | 0.00 | 0.00 | 85 | 1011.3 | |
| 20260509053015 | 38 | 0.0 | 0.0 | 0.00 | 0.00 | 0.00 | 84 | 1011.2 | |
| 20260509052515 | 38 | 0.0 | 0.0 | 0.00 | 0.00 | 0.00 | 84 | 1011.2 | |
| 20260509052035 | 38 | 0.0 | 0.0 | 0.00 | 0.00 | 0.00 | 84 | 1011.2 | |
| 20260509051515 | 38 | 0.0 | 0.0 | 0.00 | 0.00 | 0.00 | 84 | 1011.1 | |
| 20260509051015 | 38 | 0.0 | 0.0 | 0.00 | 0.00 | 0.00 | 84 | 1011.1 | |
| 20260509050515 | 38 | 0.0 | 0.0 | 0.00 | 0.00 | 0.00 | 84 | 1011.1 | |
| 20260509050015 | 38 | 0.0 | 0.0 | 0.00 | 0.00 | 0.00 | 84 | 1011.1 | |
| 20260509045515 | 39 | 0.0 | 0.0 | 0.00 | 0.00 | 0.00 | 83 | 1011.1 | |
| 20260509045015 | 39 | 0.0 | 0.0 | 0.00 | 0.00 | 0.00 | 83 | 1011.0 | |
| 20260509044515 | 39 | 0.0 | 0.0 | 0.00 | 0.00 | 0.00 | 83 | 1011.0 | |
| 20260509044015 | 39 | 0.0 | 0.0 | 0.00 | 0.00 | 0.00 | 82 | 1011.0 | |
| 20260509043515 | 39 | 0.0 | 0.0 | 0.00 | 0.00 | 0.00 | 82 | 1011.0 | |
| 20260509043035 | 39 | 0.0 | 0.0 | 0.00 | 0.00 | 0.00 | 82 | 1011.1 | |
| 20260509042514 | 39 | 0.0 | 0.0 | 0.00 | 0.00 | 0.00 | 82 | 1011.0 | |
| 20260509042014 | 39 | 0.0 | 0.0 | 0.00 | 0.00 | 0.00 | 82 | 1011.0 | |
| 20260509041516 | 40 | 0.0 | 0.0 | 0.00 | 0.00 | 0.00 | 82 | 1010.9 | |
| 20260509041017 | 40 | 0.0 | 0.0 | 0.00 | 0.00 | 0.00 | 81 | 1010.9 | |
| 20260509040537 | 40 | 0.0 | 0.0 | 0.00 | 0.00 | 0.00 | 80 | 1010.8 | |
| 20260509040037 | 40 | 0.0 | 0.0 | 0.00 | 0.00 | 0.00 | 80 | 1010.8 | |
| 20260509035536 | 41 | 0.0 | 0.0 | 0.00 | 0.00 | 0.00 | 79 | 1010.7 | |
| 20260509035137 | 41 | 0.0 | 0.0 | 0.00 | 0.00 | 0.00 | 79 | 1010.7 | |
| 20260509034516 | 41 | 0.0 | 0.0 | 0.00 | 0.00 | 0.00 | 78 | 1010.7 | |
| 20260509034036 | 41 | 0.0 | 0.0 | 0.00 | 0.00 | 0.00 | 78 | 1010.7 | |
| 20260509033516 | 41 | 0.0 | 0.0 | 0.00 | 0.00 | 0.00 | 77 | 1010.7 | |
| 20260509033016 | 41 | 0.0 | 0.0 | 0.00 | 0.00 | 0.00 | 77 | 1010.8 | |
| 20260509032556 | 42 | 0.0 | 0.0 | 0.00 | 0.00 | 0.00 | 77 | 1010.7 | |
| 20260509032016 | 42 | 0.0 | 0.0 | 0.00 | 0.00 | 0.00 | 76 | 1010.7 | |
| 20260509031516 | 42 | 0.0 | 0.0 | 0.00 | 0.00 | 0.00 | 76 | 1010.6 | |
| 20260509031016 | 42 | 0.0 | 0.0 | 0.00 | 0.00 | 0.00 | 75 | 1010.6 | |
| 20260509030516 | 42 | 0.0 | 0.0 | 0.00 | 0.00 | 0.00 | 75 | 1010.6 | |
| 20260509030036 | 42 | 0.0 | 0.0 | 0.00 | 0.00 | 0.00 | 75 | 1010.5 | |
| 20260509025536 | 43 | 0.0 | 0.0 | 0.00 | 0.00 | 0.00 | 74 | 1010.5 | |
| 20260509025016 | 43 | 0.0 | 0.0 | 0.00 | 0.00 | 0.00 | 73 | 1010.4 | |
| 20260509024516 | 43 | 0.0 | 0.0 | 0.00 | 0.00 | 0.00 | 72 | 1010.4 | |
| 20260509024016 | 44 | 0.0 | 0.0 | 0.00 | 0.00 | 0.00 | 72 | 1010.4 | |
| 20260509023516 | 44 | 0.0 | 0.0 | 0.00 | 0.00 | 0.00 | 71 | 1010.4 | |
| 20260509023016 | 44 | 0.0 | 0.0 | 0.00 | 0.00 | 0.00 | 70 | 1010.4 | |
| 20260509022516 | 44 | 0.0 | 0.0 | 0.00 | 0.00 | 0.00 | 70 | 1010.4 | |
| 20260509022016 | 44 | 0.0 | 0.0 | 0.00 | 0.00 | 0.00 | 70 | 1010.4 | |
| 20260509021516 | 45 | 0.0 | 0.0 | 0.00 | 0.00 | 0.00 | 69 | 1010.3 | |
| 20260509021016 | 45 | 0.0 | 0.0 | 0.00 | 0.00 | 0.00 | 69 | 1010.2 | |
| 20260509020516 | 45 | 0.0 | 0.0 | 0.00 | 0.00 | 0.00 | 69 | 1010.1 | |
| 20260509020016 | 45 | 0.0 | 0.0 | 0.00 | 0.00 | 0.00 | 68 | 1010.0 | |
| 20260509015516 | 45 | 0.0 | 0.0 | 0.00 | 0.00 | 0.00 | 69 | 1009.9 | |
| 20260509015036 | 46 | 0.0 | 0.0 | 0.00 | 0.00 | 0.00 | 67 | 1009.8 | |
| 20260509014516 | 46 | 0.0 | 0.0 | 0.00 | 0.00 | 0.00 | 66 | 1009.8 | |
| 20260509014016 | 46 | 0.0 | 0.0 | 0.00 | 0.00 | 0.00 | 65 | 1009.7 | |
| 20260509013516 | 46 | 0.0 | 0.0 | 0.00 | 0.00 | 0.00 | 64 | 1009.7 | |
| 20260509013036 | 47 | 0.0 | 0.0 | 0.00 | 0.00 | 0.00 | 63 | 1009.6 | |
| 20260509012516 | 47 | 0.0 | 0.0 | 0.00 | 0.00 | 0.00 | 62 | 1009.5 | |
| 20260509012016 | 48 | 0.0 | 0.0 | 0.00 | 0.00 | 0.00 | 61 | 1009.5 | |
| 20260509011516 | 48 | 0.0 | 0.0 | 0.00 | 0.00 | 0.00 | 60 | 1009.4 | |
| 20260509011016 | 48 | 0.0 | 0.0 | 0.00 | 0.00 | 0.00 | 60 | 1009.3 | |
| 20260509010516 | 49 | 0.0 | 0.0 | 0.00 | 0.00 | 0.00 | 59 | 1009.2 | |
| 20260509010016 | 49 | 0.0 | 0.0 | 0.00 | 0.00 | 0.00 | 58 | 1009.0 | |
| 20260509005516 | 49 | 0.0 | 0.0 | 0.00 | 0.00 | 0.00 | 57 | 1009.0 | |
| 20260509005016 | 50 | 0.0 | 0.0 | 0.00 | 0.00 | 0.00 | 55 | 1008.9 | |
| 20260509004516 | 50 | 0.0 | 0.0 | 0.00 | 0.00 | 0.00 | 55 | 1008.7 | |
| 20260509004016 | 50 | 0.0 | 0.0 | 0.00 | 0.00 | 0.00 | 54 | 1008.5 | |
| 20260509003516 | 50 | 0.0 | 0.0 | 0.00 | 0.00 | 0.00 | 53 | 1008.4 | |
| 20260509003016 | 51 | 0.0 | 0.0 | 0.00 | 0.00 | 0.00 | 53 | 1008.4 | |
| 20260509002536 | 51 | 0.0 | 0.0 | 0.00 | 0.00 | 0.00 | 52 | 1008.3 | |
| 20260509002036 | 51 | 0.0 | 0.0 | 0.00 | 0.00 | 0.00 | 52 | 1008.3 | |
| 20260509001516 | 52 | 0.0 | 0.0 | 0.00 | 0.00 | 0.00 | 51 | 1008.2 | |
| 20260509001056 | 52 | 0.0 | 0.0 | 0.00 | 0.00 | 0.00 | 50 | 1008.2 | |
| 20260509000516 | 52 | 0.0 | 0.0 | 0.00 | 0.00 | 0.00 | 50 | 1008.1 | |
| 20260509000016 | 53 | 0.0 | 0.0 | 0.00 | 0.00 | 0.00 | 49 | 1007.9 | |
| 20260508235516 | 53 | 0.0 | 0.0 | 0.00 | 0.00 | 0.00 | 49 | 1007.8 | |
| 20260508235016 | 53 | 0.0 | 0.0 | 0.00 | 0.00 | 0.00 | 48 | 1007.8 | |
| 20260508234536 | 54 | 0.0 | 0.0 | 0.00 | 0.00 | 0.00 | 46 | 1007.7 | |
| 20260508234015 | 54 | 0.0 | 0.0 | 0.00 | 0.00 | 0.00 | 45 | 1007.6 | |
| 20260508233516 | 54 | 0.0 | 6.0 | 0.00 | 0.00 | 0.00 | 45 | 1007.5 | |
| 20260508233036 | 54 | 281 | 0.0 | 6.0 | 0.00 | 0.00 | 0.00 | 44 | 1007.5 |
| 20260508232516 | 55 | 0.0 | 0.0 | 0.00 | 0.00 | 0.00 | 44 | 1007.4 | |
| 20260508232016 | 55 | 0.0 | 0.0 | 0.00 | 0.00 | 0.00 | 43 | 1007.3 | |
| 20260508231516 | 55 | 0.0 | 1.0 | 0.00 | 0.00 | 0.00 | 41 | 1007.1 | |
| 20260508231016 | 56 | 281 | 0.0 | 1.0 | 0.00 | 0.00 | 0.00 | 41 | 1007.1 |
| 20260508230516 | 56 | 0.0 | 0.0 | 0.00 | 0.00 | 0.00 | 40 | 1007.0 | |
| 20260508230016 | 56 | 0.0 | 1.0 | 0.00 | 0.00 | 0.00 | 39 | 1007.0 | |
| 20260508225516 | 56 | 286 | 0.0 | 1.0 | 0.00 | 0.00 | 0.00 | 38 | 1006.9 |
| 20260508225036 | 56 | 0.0 | 0.0 | 0.00 | 0.00 | 0.00 | 39 | 1006.7 | |
| 20260508224516 | 57 | 0.0 | 0.0 | 0.00 | 0.00 | 0.00 | 38 | 1006.8 | |
| 20260508224015 | 57 | 0.0 | 0.0 | 0.00 | 0.00 | 0.00 | 38 | 1006.7 | |
| 20260508223516 | 57 | 0.0 | 0.0 | 0.00 | 0.00 | 0.00 | 37 | 1006.7 | |
| 20260508223015 | 57 | 0.0 | 1.0 | 0.00 | 0.00 | 0.00 | 38 | 1006.6 | |
| 20260508222515 | 57 | 289 | 0.0 | 1.0 | 0.00 | 0.00 | 0.00 | 40 | 1006.6 |
| 20260508222015 | 57 | 0.0 | 0.0 | 0.00 | 0.00 | 0.00 | 39 | 1006.6 | |
| 20260508221515 | 57 | 0.0 | 0.0 | 0.00 | 0.00 | 0.00 | 39 | 1006.5 | |
| 20260508221015 | 57 | 0.0 | 0.0 | 0.00 | 0.00 | 0.00 | 39 | 1006.5 | |
| 20260508220516 | 57 | 0.0 | 7.0 | 0.00 | 0.00 | 0.00 | 39 | 1006.5 | |
| 20260508220015 | 57 | 225 | 1.0 | 9.0 | 0.00 | 0.00 | 0.00 | 39 | 1006.5 |
| 20260508215516 | 57 | 271 | 2.0 | 9.0 | 0.00 | 0.00 | 0.00 | 40 | 1006.5 |
| 20260508215015 | 57 | 0.0 | 0.0 | 0.00 | 0.00 | 0.00 | 39 | 1006.5 | |
| 20260508214515 | 57 | 0.0 | 0.0 | 0.00 | 0.00 | 0.00 | 40 | 1006.5 | |
| 20260508214016 | 57 | 0.0 | 0.0 | 0.00 | 0.00 | 0.00 | 40 | 1006.4 | |
| 20260508213515 | 57 | 0.0 | 1.0 | 0.00 | 0.00 | 0.00 | 39 | 1006.5 | |
| 20260508213015 | 57 | 178 | 0.0 | 1.0 | 0.00 | 0.00 | 0.00 | 38 | 1006.4 |
| 20260508212515 | 57 | 276 | 0.0 | 1.0 | 0.00 | 0.00 | 0.00 | 38 | 1006.4 |
| 20260508212035 | 58 | 281 | 0.0 | 1.0 | 0.00 | 0.00 | 0.00 | 38 | 1006.4 |
| 20260508211516 | 58 | 226 | 0.0 | 1.0 | 0.00 | 0.00 | 0.00 | 37 | 1006.3 |
| 20260508211015 | 58 | 260 | 0.0 | 1.0 | 0.00 | 0.00 | 0.00 | 36 | 1006.3 |
| 20260508210515 | 59 | 0.0 | 0.0 | 0.00 | 0.00 | 0.00 | 36 | 1006.2 | |
| 20260508210015 | 59 | 0.0 | 0.0 | 0.00 | 0.00 | 0.00 | 38 | 1006.2 | |
| 20260508205535 | 59 | 0.0 | 0.0 | 0.00 | 0.00 | 0.00 | 37 | 1006.2 | |
| 20260508205015 | 59 | 0.0 | 1.0 | 0.00 | 0.00 | 0.00 | 37 | 1006.1 | |
| 20260508204515 | 59 | 268 | 0.0 | 1.0 | 0.00 | 0.00 | 0.00 | 36 | 1006.1 |
| 20260508204015 | 59 | 0.0 | 2.0 | 0.00 | 0.00 | 0.00 | 37 | 1006.0 | |
| 20260508203515 | 59 | 221 | 0.0 | 7.0 | 0.00 | 0.00 | 0.00 | 36 | 1006.0 |
| 20260508203015 | 59 | 225 | 0.0 | 9.0 | 0.00 | 0.00 | 0.00 | 36 | 1006.1 |
| 20260508202515 | 59 | 201 | 0.0 | 9.0 | 0.00 | 0.00 | 0.00 | 37 | 1006.0 |
| 20260508202015 | 58 | 0.0 | 0.0 | 0.00 | 0.00 | 0.00 | 40 | 1006.0 | |
| 20260508201515 | 58 | 0.0 | 0.0 | 0.00 | 0.00 | 0.00 | 39 | 1005.9 | |
| 20260508201015 | 58 | 0.0 | 1.0 | 0.00 | 0.00 | 0.00 | 37 | 1006.0 | |
| 20260508200515 | 58 | 280 | 0.0 | 1.0 | 0.00 | 0.00 | 0.00 | 39 | 1006.0 |
| 20260508200035 | 58 | 224 | 0.0 | 1.0 | 0.00 | 0.00 | 0.00 | 40 | 1006.0 |
| 20260508195515 | 58 | 0.0 | 0.0 | 0.00 | 0.00 | 0.00 | 39 | 1006.0 | |
| 20260508195015 | 58 | 0.0 | 0.0 | 0.00 | 0.00 | 0.00 | 38 | 1006.0 | |
| 20260508194515 | 58 | 0.0 | 1.0 | 0.00 | 0.00 | 0.00 | 37 | 1006.1 | |
| 20260508194015 | 59 | 264 | 0.0 | 1.0 | 0.00 | 0.00 | 0.00 | 38 | 1006.2 |
| 20260508193515 | 59 | 340 | 0.0 | 1.0 | 0.00 | 0.00 | 0.00 | 39 | 1006.1 |
| 20260508193015 | 58 | 333 | 0.0 | 7.0 | 0.00 | 0.00 | 0.00 | 41 | 1006.1 |
| 20260508192535 | 59 | 203 | 1.0 | 7.0 | 0.00 | 0.00 | 0.00 | 39 | 1006.2 |
| 20260508192015 | 58 | 297 | 0.0 | 5.0 | 0.00 | 0.00 | 0.00 | 40 | 1006.3 |
| 20260508191515 | 58 | 316 | 0.0 | 1.0 | 0.00 | 0.00 | 0.00 | 40 | 1006.4 |
| 20260508191015 | 58 | 0.0 | 12.0 | 0.00 | 0.00 | 0.00 | 42 | 1006.4 | |
| 20260508190515 | 58 | 275 | 1.0 | 12.0 | 0.00 | 0.00 | 0.00 | 41 | 1006.4 |
| 20260508190015 | 58 | 177 | 0.0 | 11.0 | 0.00 | 0.00 | 0.00 | 39 | 1006.3 |
| 20260508185515 | 58 | 306 | 1.0 | 11.0 | 0.00 | 0.00 | 0.00 | 41 | 1006.3 |
| 20260508185015 | 58 | 181 | 0.0 | 1.0 | 0.00 | 0.00 | 0.00 | 40 | 1006.3 |
| 20260508184515 | 58 | 0.0 | 0.0 | 0.00 | 0.00 | 0.00 | 38 | 1006.4 | |
| 20260508184015 | 58 | 0.0 | 0.0 | 0.00 | 0.00 | 0.00 | 40 | 1006.3 | |
| 20260508183515 | 58 | 0.0 | 3.0 | 0.00 | 0.00 | 0.00 | 39 | 1006.3 | |
| 20260508183015 | 58 | 329 | 0.0 | 3.0 | 0.00 | 0.00 | 0.00 | 37 | 1006.2 |
| 20260508182515 | 59 | 0.0 | 0.0 | 0.00 | 0.00 | 0.00 | 37 | 1006.1 | |
| 20260508182015 | 59 | 0.0 | 1.0 | 0.00 | 0.00 | 0.00 | 38 | 1006.2 |